[Iaude] MPEC A105: 2024 AM2 [a=2.27,e=0.68,i=2.4,H=24.9]
    mpec at marsden.cfa.harvard.edu 
    mpec at marsden.cfa.harvard.edu
       
    Tue Jan  9 21:07:28 EST 2024
    
    
  
M.P.E.C. 2024-A105                             Issued 2024 January 10, 02:05 UT
     The Minor Planet Electronic Circulars contain information on unusual
         minor planets, routine data on comets and natural satellites,
         and occasional editorial announcements.  They are published
    on behalf of Division F of the International Astronomical Union by the
          Minor Planet Center, Smithsonian Astrophysical Observatory,
                          Cambridge, MA 02138, U.S.A.
			  
             Prepared using the Tamkin Foundation Computer Network
                              MPC at CFA.HARVARD.EDU
            URL https://www.minorplanetcenter.net/    ISSN 1523-6714
                                    2024 AM2                                    
Observations:
     K24A02M* C2024 01 08.37206407 29 05.742+38 49 07.29         20.39wXEA105F51
     K24A02M  C2024 01 08.38348107 29 05.197+38 48 06.54         20.46wXEA105F51
     K24A02M  C2024 01 08.39489507 29 04.601+38 47 05.50         20.78wXEA105F51
     K24A02M  C2024 01 08.56021507 28 56.262+38 32 06.16         20.59GVEA105F51
     K24A02M  C2024 01 08.56085807 28 56.227+38 32 02.78         20.54GVEA105F51
     K24A02M KB2024 01 08.85230207 29 07.27 +38 06 31.1          20.0 GXEA105958
     K24A02M KB2024 01 08.86160407 29 07.15 +38 05 48.2          20.2 GXEA105958
     K24A02M KB2024 01 08.87081207 29 06.99 +38 05 04.5          20.0 GXEA105958
     K24A02M KB2024 01 08.95986907 29 03.97 +37 58 07.1          20.8 GXEA105I93
     K24A02M KB2024 01 08.96672007 29 03.68 +37 57 34.4          20.4 GXEA105I93
     K24A02M KB2024 01 08.97356607 29 03.38 +37 57 01.7          20.7 GXEA105I93
     K24A02M KC2024 01 09.00865407 29 00.59 +37 54 13.2          20.2 GVEA105L01
     K24A02M KC2024 01 09.01138607 29 00.51 +37 54 00.3          20.0 GVEA105L01
     K24A02M IC2024 01 09.01370007 29 00.43 +37 53 49.7          20.1 GVEA105L01
     K24A02M KB2024 01 09.03667307 29 01.03 +37 52 02.2          20.6 GXEA105I93
     K24A02M KB2024 01 09.04476707 29 00.74 +37 51 24.3                XEA105I93
     K24A02M KB2024 01 09.05248407 29 00.39 +37 50 47.5          20.5 GXEA105I93
     K24A02M 2C2024 01 09.06495807 29 01.593+37 50 18.91         20.9 GVEA105J04
     K24A02M  C2024 01 09.21055207 29 06.863+37 38 40.91         20.7 GVEA105654
     K24A02M  C2024 01 09.21857107 29 06.604+37 38 06.30         20.7 GVEA105654
     K24A02M KC2024 01 09.84292 07 29 05.95 +36 53 39.4          19.8 GVEA105104
     K24A02M KC2024 01 09.85829 07 29 05.55 +36 52 41.2                VEA105104
     K24A02M KB2024 01 09.87878 07 29 04.522+36 51 11.12         19.5 GXEA105L38
     K24A02M KB2024 01 09.91524 07 29 03.631+36 48 51.66         20.5 GXEA105L38
Observer details:
104 San Marcello Pistoiese.  Observers P. Bacci, M. Maestripieri.  Measurer P.
    Bacci.  0.60-m f/4.0 reflector + CCD.
654 Table Mountain Observatory, Wrightwood-PHMC.  Observers N. Evans, P. Choi,
    N. Saini, C. Zhai, R. Trahan, M. Shao.  1.0-m Reflector + CCD.
958 Observatoire de Dax.  Observer P. Dupouy.  0.50-m f/4.5 Reflector + CMO.
F51 Pan-STARRS 1, Haleakala.  Observers J. Herman, T. Lowe, P. Minguez, A.
    Schultz, I. Smith.  Measurers K. Chambers, T. de Boer, J. Fairlamb, H.
    Gao, M. Huber, C.-C. Lin, E. Magnier, Y. Ramanjooloo, R. Wainscoat, R.
    Weryk.  1.8-m Ritchey-Chretien + CCD.
I93 St Pardon de Conques.  Observer F. Losse.  0.40-m f/3.7 reflector + CMO.
J04 ESA Optical Ground Station, Tenerife.  Observers P. Ruiz, F. Ocana, M.
    Micheli, L. Conversi.  Measurers M. Micheli, R. Kresken, F. Ocana.
    1.0-m f/4.4 reflector + CCD.
L01 Visnjan Observatory, Tican.  Observer K. Korlevic.  1.0-m f/2.9 reflector
    + CCD.
L38 Gartensternwarte Schafsweide, Sehlde.  Observer A. Opitz.  0.35-m f/5.2
    Newton + CMO.
Orbital elements:
2024 AM2                                                 Earth MOID = 0.0164 AU
Epoch 2023 Sept. 13.0 TT = JDT 2460200.5                Veres                   
M 340.31844              (2000.0)            P               Q                  
n   0.28866989     Peri.  314.72732     +0.85932290     -0.50980734             
a   2.2674361      Node    75.96382     +0.48030233     +0.77707486             
e   0.6774464      Incl.    2.40741     +0.17570948     +0.36912211             
P   3.41           H   24.99          G   0.15           U   8                  
Residuals in seconds of arc
240108 F51  0.1-  0.1-    240108 I93  0.5+  0.6+    240109 I93  0.2-  0.1-
240108 F51  0.2+  0.0     240108 I93  0.0   0.2+    240109 J04  0.1+  0.1+
240108 F51  0.1+  0.1-    240108 I93  0.5-  0.2-    240109 654  0.1-  0.0
240108 F51  0.0   0.1+    240109 L01  0.3-  0.5-    240109 654  0.1-  0.0
240108 F51  0.1-  0.2+    240109 L01  0.0   0.3-    240109 104  0.7+  0.3+
240108 958  0.6-  0.2+    240109 L01  0.0   0.3+    240109 104  0.5+  0.3+
240108 958  0.4+  0.7+    240109 I93  0.3+  0.7-    240109 L38  0.3-  0.1-
240108 958  1.1+  0.0     240109 I93  0.5+  0.1-    240109 L38  0.5+  0.3-
Ephemeris:
2024 AM2                 a,e,i = 2.27, 0.68, 2                   q = 0.7314
Date    TT    R. A. (2000) Decl.     Delta      r    Elong.  Phase     V
2023 12 11    19 23 22.1 -22 54 58   0.2163  0.8066    30.8   141.3    28.2
...
2023 12 26    19 30 24.6 -10 47 54   0.05894 0.9290    21.8   156.8    28.7
...
2024 01 03    07 27 26.8 +61 30 22   0.02927 1.0062   140.9    38.0    18.9
...
2024 01 09    07 29 01.9 +37 55 12   0.08657 1.0669   164.1    14.6    20.6
2024 01 10    07 29 01.6 +36 43 53   0.09667 1.0772   165.3    13.4    20.9
2024 01 11    07 29 00.9 +35 45 30   0.1069  1.0875   166.2    12.5    21.1
...
2024 01 17    07 29 03.4 +32 16 35   0.1697  1.1500   167.6    10.6    22.1
...
2024 01 25    07 29 54.1 +30 04 13   0.2583  1.2340   163.3    13.3    23.3
...
2024 02 09    07 34 48.6 +27 51 41   0.4435  1.3910   151.0    20.1    24.9
M. P. C. Staff               (C) Copyright 2024 MPC           M.P.E.C. 2024-A105
    
    
More information about the Iaude
mailing list